軌道要素
Epoch 2014 Jan. 23.0 TT = JDT 2456680.5
T 2014 Feb. 11.55149 TT MPCW
q 3.9137208 (2000.0) P Q
n 0.11089739 Peri. 309.49688 -0.70026287 -0.71386625
a 4.2906377 Node 184.96085 +0.67200363 -0.65671215
e 0.0878463 Incl. 3.43738 +0.24092123 -0.24315453
P 8.89
From 614 observations 1991 Feb. 7-2016 May 7, mean residual 0".8.
Nongravitational parameters Y1 = +0.18, Y2 = -0.0346.
|